Location: Newark
(48.1500°N, 2.9667°W)
Time: 09:53:25
(UTC+00:00)

SR - All Passes

Search period start: 18 January 2020 00:00
Search period end: 28 January 2020 00:00
Orbit: 574 x 882 km, 66.7° (Epoch: 17 January)

Date Brightness Start Highest point End Pass type
(mag) Time Alt. Az. Time Alt. Az. Time Alt. Az.
18 Jan - 01:33:45 10° WSW 01:39:18 42° NW 01:44:57 10° NNE night (unlit)
18 Jan - 03:19:24 10° WNW 03:23:02 16° NNW 03:26:39 10° NNE visible
18 Jan - 05:05:21 10° NNW 05:07:41 12° N 05:10:00 10° NNE visible
18 Jan - 06:47:39 10° NNW 06:52:06 22° NNE 06:56:20 10° E visible
18 Jan - 08:29:28 10° NNW 08:35:14 76° NE 08:40:30 10° SE daylight
18 Jan - 10:12:43 10° WNW 10:16:38 20° WSW 10:20:22 10° SSW daylight
18 Jan - 23:02:56 10° SSE 23:07:41 27° ESE 23:12:32 10° NE night (unlit)
19 Jan - 00:43:34 10° SW 00:49:24 67° NW 00:55:21 10° NNE night (unlit)
19 Jan - 02:28:12 10° WNW 02:32:39 21° NNW 02:37:05 10° NNE visible
19 Jan - 04:14:46 10° NNW 04:17:06 12° N 04:19:23 10° NNE visible
19 Jan - 05:58:05 10° NNW 06:01:44 17° NNE 06:05:14 10° ENE visible
19 Jan - 07:39:50 10° NNW 07:45:22 46° NE 07:50:29 10° ESE daylight
19 Jan - 09:22:17 10° NW 09:27:23 37° WSW 09:32:07 10° S daylight
19 Jan - 22:15:28 10° SE 22:18:30 15° ESE 22:21:35 10° ENE night (unlit)
19 Jan - 23:53:51 10° SSW 23:59:41 76° ESE 00:05:38 10° NE night (unlit)
20 Jan - 01:37:17 10° W 01:42:24 29° NW 01:47:33 10° NNE night (unlit)
20 Jan - 03:23:38 10° NW 03:26:31 14° NNW 03:29:22 10° NNE visible
20 Jan - 05:08:25 10° NNW 05:11:14 14° NNE 05:14:00 10° NE visible
20 Jan - 06:50:16 10° NNW 06:55:19 30° NE 07:00:02 10° E visible
20 Jan - 08:32:18 10° NW 08:37:55 67° WSW 08:43:04 10° SSE daylight
20 Jan - 10:17:44 10° W 10:18:49 11° W 10:19:54 10° WSW daylight
20 Jan - 23:04:39 10° S 23:10:08 44° ESE 23:15:45 10° NE night (unlit)
21 Jan - 00:46:43 10° WSW 00:52:20 44° NW 00:58:00 10° NNE night (unlit)
21 Jan - 02:32:19 10° WNW 02:36:01 17° NNW 02:39:41 10° NNE visible
21 Jan - 04:18:23 10° NNW 04:20:39 12° N 04:22:53 10° NNE visible
21 Jan - 06:00:44 10° NNW 06:05:05 21° NNE 06:09:13 10° ENE visible
21 Jan - 07:42:32 10° NNW 07:48:15 72° NE 07:53:29 10° SE daylight
21 Jan - 09:25:41 10° WNW 09:29:43 21° WSW 09:33:33 10° SSW daylight
21 Jan - 22:16:07 10° SSE 22:20:46 25° ESE 22:25:31 10° NE night (unlit)
21 Jan - 23:56:35 10° SW 00:02:27 69° NW 00:08:23 10° NNE night (unlit)
22 Jan - 01:41:07 10° W 01:45:38 22° NNW 01:50:07 10° NNE night (unlit)
22 Jan - 03:27:44 10° NNW 03:30:03 12° N 03:32:20 10° NNE visible
22 Jan - 05:11:09 10° NNW 05:14:42 16° NNE 05:18:07 10° ENE visible
22 Jan - 06:52:55 10° NNW 06:58:23 44° NE 07:03:25 10° ESE visible
22 Jan - 08:35:18 10° NW 08:40:27 38° WSW 08:45:12 10° S daylight
22 Jan - 21:28:47 10° SE 21:31:35 14° ESE 21:34:25 10° ENE night (unlit)
22 Jan - 23:06:54 10° SSW 23:12:43 73° ESE 23:18:40 10° NE night (unlit)
23 Jan - 00:50:14 10° W 00:55:25 30° NW 01:00:36 10° NNE night (unlit)
23 Jan - 02:36:33 10° NW 02:39:29 14° NNW 02:42:22 10° NNE visible
23 Jan - 04:21:28 10° NNW 04:24:12 13° NNE 04:26:51 10° NE visible
23 Jan - 06:03:21 10° NNW 06:08:18 29° NE 06:12:58 10° E visible
23 Jan - 07:45:21 10° NW 07:50:58 70° WSW 07:56:07 10° SSE daylight
23 Jan - 09:30:19 10° W 09:31:54 11° W 09:33:27 10° WSW daylight
23 Jan - 22:17:45 10° S 22:23:12 42° ESE 22:28:45 10° NE night (unlit)
23 Jan - 23:59:42 10° WSW 00:05:21 45° NW 00:11:03 10° NNE night (unlit)
24 Jan - 01:45:13 10° WNW 01:48:59 17° NNW 01:52:43 10° NNE visible
24 Jan - 03:31:24 10° NNW 03:33:36 12° N 03:35:47 10° NNE visible
24 Jan - 05:13:49 10° NNW 05:18:03 21° NNE 05:22:06 10° ENE visible
24 Jan - 06:55:36 10° NNW 07:01:17 69° NE 07:06:28 10° SE visible
24 Jan - 08:38:39 10° WNW 08:42:48 22° WSW 08:46:41 10° SSW daylight
24 Jan - 21:29:18 10° SSE 21:33:51 24° ESE 21:38:29 10° ENE night (unlit)
24 Jan - 23:09:36 10° SW 23:15:29 73° NW 23:21:26 10° NNE night (unlit)
25 Jan - 00:54:02 10° W 00:58:37 22° NNW 01:03:10 10° NNE night (unlit)
25 Jan - 02:40:41 10° NNW 02:43:00 12° N 02:45:18 10° NNE visible
25 Jan - 04:24:14 10° NNW 04:27:40 16° NNE 04:30:58 10° ENE visible
25 Jan - 06:05:59 10° NNW 06:11:23 42° NE 06:16:22 10° ESE visible
25 Jan - 07:48:19 10° NW 07:53:30 40° WSW 07:58:16 10° S daylight
25 Jan - 20:42:10 10° SE 20:44:41 13° ESE 20:47:13 10° ENE night (unlit)
25 Jan - 22:19:57 10° SSW 22:25:46 69° ESE 22:31:42 10° NE night (unlit)
26 Jan - 00:03:10 10° W 00:08:25 31° NW 00:13:39 10° NNE night (unlit)
26 Jan - 01:49:26 10° NW 01:52:26 14° NNW 01:55:23 10° NNE visible
26 Jan - 03:34:31 10° NNW 03:37:09 13° N 03:39:43 10° NE visible
26 Jan - 05:16:25 10° NNW 05:21:18 28° NE 05:25:52 10° E visible
26 Jan - 06:58:23 10° NW 07:04:01 74° WSW 07:09:08 10° SSE visible
26 Jan - 08:43:03 10° W 08:44:59 12° W 08:46:52 10° WSW daylight
26 Jan - 21:30:52 10° S 21:36:16 40° ESE 21:41:46 10° NE night (unlit)
26 Jan - 23:12:41 10° WSW 23:18:23 47° NW 23:24:06 10° NNE night (unlit)
27 Jan - 00:58:07 10° WNW 01:01:57 17° NNW 01:05:45 10° NNE night (unlit)
27 Jan - 02:44:25 10° NNW 02:46:33 12° N 02:48:41 10° NNE visible
27 Jan - 04:26:53 10° NNW 04:31:02 20° NNE 04:34:59 10° ENE visible
27 Jan - 06:08:39 10° NNW 06:14:18 65° NE 06:19:27 10° SE visible
27 Jan - 07:51:37 10° WNW 07:55:52 23° WSW 07:59:50 10° SSW daylight
27 Jan - 20:42:29 10° SSE 20:46:56 23° ESE 20:51:27 10° ENE night (unlit)
27 Jan - 22:22:37 10° SW 22:28:31 76° NW 22:34:28 10° NNE night (unlit)
